SCP
0 0 0 0 0 0 0 0 1 2 3 3 3 4 5 4 3 3 3 3 4 6 7 6 5 3 3 2 2 3 3 4 4 4 4 4 3 3 3 3 3 3 3 3
0 0 0 0 0 0 0 0 1 2 3 5 5 5 5 5 4 4 4 4 4 6 6 6 4 4 3 3 3 3 3 3 4 4 4 4 4 3 3 4 4 4 3 3
0 0 0 0 1 1 2 2 2 3 6 7 8 8 6 5 5 5 5 4 5 5 5 5 4 4 3 4 4 5 4 4 4 4 4 4 4 4 4 5 5 4 4 3
0 0 0 1 2 3 4 4 4 5 7 8 9 9 7 5 5 5 5 4 5 5 5 4 4 4 4 4 4 5 5 5 5 5 5 5 5 5 5 5 5 5 4 4
0 0 1 1 2 3 4 4 4 5 5 6 7 8 7 6 5 5 5 5 5 5 6 5 5 5 4 4 4 5 5 5 5 5 5 6 6 6 6 6 5 5 4 4
0 0 1 2 3 3 3 4 4 4 4 5 5 6 5 6 7 7 7 7 6 6 7 6 6 5 4 4 3 4 4 4 4 4 5 5 6 6 6 5 4 4 4 3
1 1 1 2 3 4 4 5 5 5 5 6 6 5 5 5 7 8 8 7 6 6 7 6 6 6 4 3 3 3 3 3 3 3 3 3 4 5 4 3 3 3 3 3
1 2 2 3 4 5 5 5 6 7 6 6 6 5 5 5 6 7 7 6 5 5 6 6 6 6 4 4 4 3 3 2 2 2 2 2 3 4 3 3 3 3 3 3
2 3 4 5 5 5 6 6 6 7 5 4 4 4 4 4 5 5 5 5 4 4 5 6 6 5 5 4 4 4 3 3 3 2 2 2 3 3 4 4 3 3 3 3
4 4 5 6 5 5 5 5 5 4 4 3 3 4 4 4 4 5 5 4 4 4 4 4 5 5 5 5 5 4 3 3 3 3 2 2 3 3 3 3 3 3 3 2
5 6 6 5 5 5 5 5 4 3 2 3 3 4 4 4 4 4 4 4 3 3 3 3 4 4 4 5 4 4 3 3 2 2 2 2 2 1 1 2 2 2 2 1
6 6 6 5 4 4 4 4 3 2 2 3 3 3 4 4 4 4 4 3 3 3 3 3 3 3 4 4 4 4 3 3 2 2 2 2 1 0 0 0 1 1 1 0
5 5 5 4 3 3 3 3 3 3 3 3 3 4 4 5 4 4 3 3 3 3 3 3 3 3 3 4 4 4 3 3 2 2 2 1 0 0 0 0 0 0 0 0
3 3 3 3 2 2 2 2 3 3 2 3 4 4 4 4 4 4 3 3 3 3 3 3 3 2 3 3 2 3 3 2 2 1 1 1 0 0 0 0 0 0 0 0
2 2 2 2 2 2 2 2 3 2 2 3 3 4 4 4 4 3 3 2 2 2 2 2 2 2 2 1 1 2 2 1 1 1 0 0 0 0 0 0 0 0 0 0
1 1 2 2 2 2 2 2 2 2 2 2 3 4 4 4 3 3 2 2 1 1 1 1 1 1 1 1 1 1 1 0 0 0 0 0 0 0 0 0 0 0 0 0
1 1 1 1 1 1 1 2 2 2 2 2 2 3 4 4 3 3 2 1 1 1 1 1 0 0 0 0 0 0 0 0 0 0 0 0 0 0 0 0 0 0 0 0
1 1 1 1 1 1 1 1 1 2 2 2 2 2 3 3 3 2 1 1 1 1 1 0 0 0 0 0 0 0 0 0 0 0 0 0 0 0 0 0 0 0 0 0
1 1 1 1 1 1 1 1 1 2 2 2 2 2 2 2 2 1 1 1 1 0 0 0 0 0 0 0 0 0 0 0 0 0 0 0 0 0 0 0 0 0 0 0
1 1 1 1 1 1 1 1 1 1 2 1 1 1 1 1 1 1 1 1 1 0 0 0 0 0 0 0 0 0 0 0 0 0 0 0 0 0 0 0 0 0 0 0
1 1 1 1 1 1 1 1 1 1 1 1 1 1 1 1 1 1 1 1 1 0 0 0 0 0 0 0 0 0 0 0 0 0 0 0 0 0 0 0 0 0 0 0
1 1 1 1 1 1 1 1 1 1 1 2 2 2 2 1 1 1 1 1 0 0 0 0 0 0 0 0 0 0 0 0 0 0 0 0 0 0 0 0 0 0 0 0
1 1 1 1 1 1 1 1 1 1 1 2 2 2 2 1 1 1 0 0 0 0 0 0 0 0 0 0 0 0 0 0 0 0 0 0 0 0 0 0 0 0 0 0
1 1 1 1 1 1 1 1 1 1 1 2 2 3 2 1 1 0 0 0 0 0 0 0 0 0 0 0 0 0 0 0 0 0 0 0 0 0 0 0 0 0 0 0
1 1 1 1 1 1 1 1 1 1 1 2 2 2 2 1 1 0 0 0 0 0 0 0 0 0 0 0 0 0 0 0 0 0 0 0 0 0 0 0 0 0 0 0
0 0 0 0 0 1 1 1 1 1 1 2 2 1 1 1 1 0 0 0 0 0 0 0 0 0 0 0 0 0 0 0 0 0 0 0 0 0 0 0 0 0 0 0
0 0 0 0 0 0 1 1 1 1 1 1 1 1 0 0 0 0 0 0 0 0 0 0 0 0 0 0 0 0 0 0 0 0 0 0 0 0 0 0 0 0 0 0
Wind_Speed
16 14 12 14 15 16 16 14 11 5 6 7 7 9 10 9 10 10 10 9 9 8 7 6 6 5 4 5 5 5 6 6 6 5 5 4 4 5 5 5 5 4 4 4
17 18 15 13 14 15 15 14 11 7 4 8 6 8 10 10 10 10 9 8 8 8 7 6 6 5 5 5 5 5 5 5 5 5 5 5 4 5 5 4 4 4 4 4
14 16 16 15 13 14 12 11 9 6 4 9 9 7 7 8 9 9 9 9 8 7 6 6 5 5 5 5 5 5 5 4 5 5 5 4 5 5 5 4 4 4 4 5
13 14 17 12 10 10 10 9 5 6 8 8 11 9 7 6 8 8 7 8 8 6 7 6 5 5 5 5 5 5 4 4 4 4 4 5 4 5 5 5 5 5 6 6
12 14 14 10 9 10 9 7 5 7 10 10 11 10 8 7 7 7 7 7 6 6 6 6 5 5 5 5 5 5 4 4 4 4 4 5 5 5 5 6 6 6 6 7
11 13 13 7 5 5 6 6 6 7 8 9 9 6 6 7 8 8 8 6 6 5 6 6 5 5 5 5 5 4 4 4 4 4 5 5 6 6 6 7 8 8 8 8
14 12 8 2 3 3 6 3 7 9 8 8 6 6 9 9 8 8 7 6 6 6 6 5 4 5 5 5 5 4 5 5 6 5 6 7 6 7 8 8 9 9 9 9
13 14 6 3 2 3 6 8 9 10 11 11 10 10 10 9 8 8 7 6 5 5 6 5 4 5 6 5 5 5 6 7 6 6 6 6 7 7 8 9 9 9 9 9
6 3 6 8 8 8 7 7 9 10 10 10 9 9 9 8 7 7 7 6 5 6 6 6 5 5 6 5 6 7 7 7 7 7 6 6 7 7 7 6 7 7 7 8
4 6 8 8 8 8 8 8 8 8 9 9 9 9 8 7 6 6 6 6 6 7 6 6 5 6 6 5 7 8 9 8 7 8 8 7 6 5 5 5 6 7 7 8
5 7 8 7 7 8 8 8 8 8 8 8 9 8 8 7 6 5 6 6 6 6 6 6 6 7 6 6 8 9 9 9 9 9 9 9 9 8 7 6 5 6 6 7
3 5 6 7 6 7 7 7 7 7 7 8 7 7 7 7 6 6 6 6 6 7 8 7 7 7 6 6 7 9 8 8 7 8 8 8 10 11 17 14 16 14 12 11
4 6 7 7 6 6 6 6 6 6 6 7 7 7 8 7 6 6 6 6 6 7 8 8 8 7 6 6 7 8 8 8 7 8 8 8 8 9 10 12 17 17 15 15
3 3 5 5 5 5 6 6 6 7 7 7 7 7 7 7 6 7 6 7 8 8 8 8 8 7 6 7 8 8 9 9 8 7 8 8 8 8 9 10 9 9 10 12
1 2 3 4 4 4 4 4 5 6 6 6 7 7 7 8 8 7 7 8 8 9 8 8 8 8 7 7 8 8 8 7 7 8 8 8 8 8 8 10 10 9 8 7
1 2 3 4 4 3 3 3 5 6 6 7 7 8 8 9 9 8 8 8 9 9 8 8 8 7 7 8 9 8 8 12 10 8 8 8 8 8 8 9 9 8 7 7
3 3 3 4 4 4 3 3 5 5 7 7 8 9 9 10 10 9 8 8 9 9 8 8 7 7 7 7 8 8 8 10 11 9 8 8 8 8 8 8 8 8 7 6
3 3 3 3 3 4 4 5 5 7 8 9 10 9 10 10 10 9 9 10 10 9 8 7 7 7 7 7 7 7 7 8 8 8 8 7 7 7 8 8 9 9 8 7
1 2 2 3 3 4 6 6 7 7 9 10 10 10 10 10 10 10 9 10 9 9 7 7 8 8 8 8 8 6 8 9 8 8 7 8 7 7 7 7 8 8 7 6
2 2 3 4 5 6 7 8 9 9 9 10 11 10 10 10 10 10 9 8 6 6 7 7 7 7 7 7 6 7 8 9 9 8 7 7 7 7 7 7 7 7 6 5
3 4 5 7 7 7 8 9 9 9 9 10 10 11 10 10 9 9 9 8 7 7 7 6 5 5 5 4 4 6 7 7 8 7 7 7 6 7 7 7 7 6 6 5
5 5 7 9 9 8 8 8 9 11 10 10 10 10 10 9 9 8 8 7 7 6 5 5 5 5 4 2 5 7 7 7 7 6 6 6 6 6 6 6 6 6 5 5
6 7 8 9 10 10 10 9 10 10 10 10 9 9 9 8 7 8 8 6 7 6 4 5 6 6 2 2 4 6 7 7 6 6 6 6 6 6 6 6 5 5 5 5
8 8 9 10 10 11 11 10 10 8 9 8 8 8 8 7 6 6 7 8 7 6 5 7 7 5 1 3 5 6 6 5 5 5 5 5 5 5 5 5 5 5 5 5
9 9 10 10 9 8 10 10 10 9 8 6 8 7 6 5 6 7 8 9 8 8 7 6 5 2 1 3 4 5 5 4 4 4 4 4 4 4 4 4 4 4 4 4
8 7 7 7 7 7 7 7 7 7 7 7 6 6 6 6 8 8 7 9 9 7 6 5 4 3 3 3 4 4 4 5 4 4 4 4 4 4 4 4 5 4 4 4
8 7 6 6 5 5 6 6 7 7 7 7 7 7 7 7 7 7 8 7 7 6 5 5 5 4 4 4 4 3 3 3 3 4 4 4 3 3 4 4 3 3 3 3
Wind_Direction
257 263 250 220 221 221 223 235 246 238 183 172 156 146 146 149 142 135 137 140 139 139 135 136 135 138 138 141 143 149 156 162 165 168 167 166 163 163 161 165 168 160 158 157
248 255 259 246 228 224 225 229 233 228 183 128 132 142 146 148 141 140 143 143 139 136 137 142 144 148 148 147 145 145 151 159 158 162 163 162 159 149 147 150 148 144 146 149
248 244 250 243 235 229 225 230 231 220 157 136 140 128 142 141 139 138 140 137 138 142 143 143 148 152 152 145 142 143 146 148 149 155 159 157 158 147 146 144 137 131 127 118
249 249 244 242 237 234 225 219 201 138 128 118 117 115 116 126 131 130 131 133 136 140 136 139 145 149 146 145 139 139 137 136 137 143 149 145 140 136 133 126 121 113 108 107
241 242 242 241 233 231 225 205 151 135 129 128 121 117 98 90 103 112 113 113 122 130 129 129 134 134 136 138 138 138 133 131 133 134 132 130 132 131 126 117 110 107 106 105
236 241 241 240 249 254 213 194 124 118 125 132 140 151 113 94 89 89 89 93 100 111 114 114 114 124 131 130 123 120 122 117 114 121 128 123 118 117 114 109 105 102 95 94
237 241 243 301 332 278 215 151 97 105 108 114 103 93 114 111 99 94 91 95 100 104 103 101 108 117 123 119 119 117 113 107 102 101 105 106 107 110 111 109 104 99 95 88
233 239 230 39 117 62 66 64 78 91 93 100 103 108 111 108 104 102 100 101 101 98 97 92 97 113 112 107 107 109 108 104 102 99 100 105 105 105 108 112 110 106 100 92
220 202 84 69 84 93 96 83 83 87 94 110 116 114 111 107 104 101 97 95 93 97 94 87 84 98 109 108 109 109 103 98 97 96 91 92 100 105 107 110 114 114 112 107
140 135 113 100 100 98 90 87 93 99 109 115 115 113 112 106 101 99 98 95 95 97 95 85 79 85 95 107 111 108 105 100 97 95 89 82 79 84 96 104 115 120 119 116
145 129 111 90 86 88 91 91 88 94 102 107 114 118 117 113 107 100 95 92 96 102 100 93 87 85 85 97 110 110 108 106 102 96 93 84 74 61 69 65 87 114 116 117
119 111 108 107 101 96 91 90 86 86 95 102 108 115 113 107 105 102 96 93 96 99 98 93 90 88 85 94 111 115 113 110 106 106 103 101 97 80 60 67 69 74 86 99
61 82 101 110 104 100 98 96 92 90 100 108 107 112 111 107 103 103 101 101 100 100 99 98 96 93 92 98 106 108 111 112 111 113 112 111 110 108 99 75 66 68 78 89
69 86 101 103 100 95 97 96 100 101 104 105 107 110 112 109 104 102 101 100 100 98 97 96 95 93 94 99 105 106 107 106 111 114 114 113 112 112 112 112 103 86 75 86
125 98 108 109 107 109 111 118 117 113 112 113 113 112 114 112 108 102 101 103 102 99 96 95 94 93 98 104 107 109 111 111 109 108 108 110 111 111 112 112 111 113 112 100
169 159 150 148 139 138 142 138 124 119 119 119 118 114 112 111 108 105 102 103 104 101 98 96 95 99 103 108 108 104 105 113 114 113 112 113 114 116 116 116 117 120 124 128
218 202 186 177 173 177 169 144 128 127 127 124 118 118 117 114 110 106 103 100 100 100 100 99 100 104 109 116 116 115 116 120 120 117 116 119 121 123 124 126 126 126 129 137
237 213 208 204 191 172 147 129 123 129 130 126 121 122 119 115 111 108 106 104 100 97 96 103 109 111 112 113 113 119 122 124 121 119 121 125 130 132 129 128 130 132 135 147
165 144 167 169 151 143 136 128 120 114 119 122 121 119 116 114 113 114 114 112 110 107 106 108 113 115 114 111 113 120 122 122 121 123 125 130 133 130 132 134 134 134 138 143
96 125 140 136 129 130 131 127 121 118 120 123 124 123 119 119 120 120 116 109 108 114 121 123 125 120 123 126 128 129 129 129 128 131 134 138 135 135 135 132 129 130 133 133
112 117 120 118 116 118 123 126 125 123 123 125 127 126 124 123 126 126 123 115 114 119 124 128 126 127 127 128 138 126 126 129 132 134 135 136 136 134 131 132 134 137 137 137
112 115 117 119 119 116 114 117 119 122 124 125 124 125 126 127 127 121 112 117 130 134 138 134 126 111 101 126 136 129 130 130 129 131 133 135 135 137 137 138 140 140 140 141
111 110 113 117 116 116 114 116 118 120 122 125 129 133 131 127 128 124 122 127 135 141 139 117 105 95 65 147 124 123 126 128 130 133 136 140 141 141 143 145 145 145 147 152
111 112 113 114 115 116 115 116 115 115 118 120 122 122 122 120 119 117 118 122 122 131 118 107 105 92 71 131 120 122 123 126 133 137 140 142 142 144 147 150 151 152 156 163
108 111 114 117 116 116 116 118 118 120 120 117 121 124 122 118 118 117 120 124 128 126 123 122 117 116 167 123 121 122 122 122 128 135 138 139 141 139 140 145 149 158 163 168
105 108 111 113 115 121 124 128 128 127 125 121 118 116 112 112 116 121 127 133 132 133 135 144 155 173 146 123 122 128 131 134 138 144 144 145 150 152 153 158 166 171 168 172
104 104 105 107 113 119 124 126 125 126 127 127 125 124 126 129 130 133 135 138 144 149 153 164 164 160 155 151 145 145 147 152 158 166 163 157 157 161 162 169 178 176 180 180